AMC-3 1 24936U 97050A 25308.32958524 -.00000247 00000+0 00000+0 0 9993 2 24936 7.5933 66.6272 0003190 167.7073 216.1646 1.00270559 50185 NSS-11 1 26554U 00059A 25308.64205809 .00000039 00000+0 00000+0 0 9998 2 26554 1.5420 84.0526 0003122 141.2438 226.0065 1.00271580 39043 AMC-6 1 26580U 00067A 25308.65176481 .00000101 00000+0 00000+0 0 9990 2 26580 0.0736 72.2901 0004138 161.0572 270.4213 1.00272354 91641 AMC-11 1 28252U 04017A 25308.58518722 -.00000037 00000+0 00000+0 0 9996 2 28252 0.0572 71.5886 0003492 161.1171 270.9724 1.00269850 78621 AMC-15 1 28446U 04041A 25308.58631390 .00000000 00000+0 00000+0 0 9994 2 28446 0.0241 37.9073 0002551 177.7081 294.4785 1.00270728 77051 NSS-10 1 28526U 05003A 25308.24300425 -.00000236 00000+0 00000+0 0 9999 2 28526 5.8872 73.1650 0002849 154.8518 225.7837 1.00270767 50900 ASTRA 1KR 1 29055U 06012A 25308.25418432 .00000000 00000+0 00000+0 0 9995 2 29055 0.0274 42.5650 0006439 191.2216 280.6448 1.00270863 43446 ASTRA 1L 1 31306U 07016A 25308.61103125 .00000134 00000+0 00000+0 0 9990 2 31306 0.7377 82.6768 0003691 147.9324 52.9218 1.00268550 42735 ASTRA 4A 1 32299U 07057A 25308.60817125 .00000045 00000+0 00000+0 0 9999 2 32299 0.0621 74.4711 0002519 146.3484 47.0562 1.00272043 49395 AMC-21 1 33275U 08038B 25308.65375816 .00000050 00000+0 00000+0 0 9991 2 33275 2.3643 83.0268 0003094 143.7451 287.8544 1.00270540 63240 ASTRA 1M 1 33436U 08057A 25308.61103126 .00000133 00000+0 00000+0 0 9992 2 33436 0.0746 76.0932 0004388 125.5476 81.6559 1.00272751 43486 NSS-9 1 33749U 09008A 25308.60322461 .00000085 00000+0 00000+0 0 9996 2 33749 0.6769 84.4621 0002318 129.3861 230.5041 1.00270453 61267 SES-7 (PROTOSTAR 2) 1 34941U 09027A 25308.59697410 -.00000332 00000+0 00000+0 0 9995 2 34941 0.0688 78.3568 0001957 171.3502 117.5768 1.00270855 60372 NSS-12 1 36032U 09058A 25308.61848463 .00000084 00000+0 00000+0 0 9994 2 36032 0.0856 72.9936 0003931 161.6198 89.1820 1.00267245 58669 SES-1 1 36516U 10016A 25308.58718058 -.00000102 00000+0 00000+0 0 9991 2 36516 0.0184 303.7495 0002888 288.8577 281.8899 1.00270835 56785 ASTRA 3B 1 36581U 10021A 25308.61181126 .00000150 00000+0 00000+0 0 9995 2 36581 0.8854 86.4655 0002442 116.4818 84.9367 1.00269641 56619 SES-3 1 37748U 11035A 25308.58674725 -.00000089 00000+0 00000+0 0 9997 2 37748 0.7421 85.3519 0002434 160.4946 266.4904 1.00270735 52349 ASTRA 1N 1 37775U 11041A 25308.61094459 .00000132 00000+0 00000+0 0 9996 2 37775 0.0916 52.4505 0001261 192.5635 38.2655 1.00270984 42274 SES-2 1 37809U 11049A 25308.58995394 -.00000184 00000+0 00000+0 0 9994 2 37809 0.0364 65.7895 0002921 160.0395 303.6723 1.00271528 51714 QUETZSAT 1 1 37826U 11054A 25308.49435659 .00000000 00000+0 00000+0 0 9998 2 37826 0.0200 43.9629 0002689 185.8846 275.1192 1.00269888 47626 SES-4 1 38087U 12007A 25308.60271122 -.00000156 00000+0 00000+0 0 9996 2 38087 0.0218 17.0633 0002297 204.6242 17.4068 1.00270390 49976 SES-5 1 38652U 12036A 25308.60817125 .00000046 00000+0 00000+0 0 9992 2 38652 0.0592 300.3576 0002215 283.5005 44.1969 1.00271034 42219 ASTRA 2F 1 38778U 12051A 25308.61276461 .00000162 00000+0 00000+0 0 9990 2 38778 0.0500 256.0503 0004524 328.4491 68.4206 1.00270384 38885 SES-6 1 39172U 13026A 25308.34975049 -.00000248 00000+0 00000+0 0 9996 2 39172 0.0294 303.7843 0002784 282.4074 263.0911 1.00269745 45471 O3B FM5 1 39188U 13031A 25287.77601439 -.00000029 00000+0 00000+0 0 9998 2 39188 0.0539 55.2205 0042654 90.1064 214.9546 5.00261930224766 O3B FM4 1 39189U 13031B 25303.68481051 -.00000013 00000+0 00000+0 0 9997 2 39189 0.0628 357.6821 0004183 253.9109 108.3689 5.00115012225576 O3B FM2 1 39190U 13031C 25306.74907488 -.00000011 00000+0 00000+0 0 9994 2 39190 0.0682 354.9512 0002852 228.0702 136.9643 5.00115884225785 O3B PFM 1 39191U 13031D 25302.16567491 -.00000015 00000+0 00000+0 0 9997 2 39191 0.0476 20.1073 0003958 245.9671 93.8874 5.00115378225103 ASTRA 2E 1 39285U 13056A 25308.61285126 .00000163 00000+0 00000+0 0 9999 2 39285 0.0770 314.9326 0002570 268.3583 69.9795 1.00270003 44163 SES-8 1 39460U 13071A 25308.77769668 -.00000257 00000+0 00000+0 0 9991 2 39460 0.0175 272.5016 0001301 296.2477 210.5145 1.00270976 42187 ASTRA 5B 1 39617U 14011B 25308.61181125 .00000150 00000+0 00000+0 0 9990 2 39617 0.0489 347.4705 0004637 250.6108 49.8104 1.00273651 42413 O3B FM3 1 40079U 14038A 25308.22894891 -.00000011 00000+0 00000+0 0 9998 2 40079 0.0545 359.0610 0001843 161.6847 199.2692 5.00115429201793 O3B FM7 1 40080U 14038B 25296.78126650 -.00000021 00000+0 00000+0 0 9999 2 40080 0.0615 2.8235 0004216 223.8897 133.2586 5.00115582206056 O3B FM6 1 40081U 14038C 25308.40195516 -.00000011 00000+0 00000+0 0 9999 2 40081 0.0573 359.6177 0002736 222.6593 137.7099 5.00115555206589 O3B FM8 1 40082U 14038D 25308.45533288 -.00000011 00000+0 00000+0 0 9997 2 40082 0.0583 0.1015 0002581 225.2669 134.6185 5.00115778206704 O3B FM10 1 40348U 14083A 25306.48329412 -.00000011 00000+0 00000+0 0 9995 2 40348 0.0634 10.5269 0002673 219.4027 130.0548 5.00115191198552 O3B FM11 1 40349U 14083B 25308.09525296 -.00000011 00000+0 00000+0 0 9993 2 40349 0.0501 5.7439 0003416 217.0184 137.2191 5.00115527198641 O3B FM12 1 40350U 14083C 25308.32231500 -.00000011 00000+0 00000+0 0 9993 2 40350 0.0506 4.7887 0002820 215.6607 139.5376 5.00115803198676 O3B FM9 1 40351U 14083D 25306.75000938 -.00000011 00000+0 00000+0 0 9998 2 40351 0.0503 7.1183 0002756 215.3390 137.5293 5.00115738198745 ASTRA 2G 1 40364U 14089A 25308.61276461 .00000162 00000+0 00000+0 0 9997 2 40364 0.0537 9.4381 0000498 63.5179 219.9916 1.00272626 39714 SES-9 1 41380U 16013A 25308.05788942 -.00000332 00000+0 00000+0 0 9995 2 41380 0.0117 324.6144 0001029 197.5514 10.5518 1.00271999 35180 SES-10 1 42432U 17017A 25308.25480730 .00000000 00000+0 00000+0 0 9996 2 42432 0.0272 58.1162 0002698 178.5685 191.8946 1.00268083 31488 SES-15 1 42709U 17026A 25308.50807384 .00000073 00000+0 00000+0 0 9999 2 42709 0.0283 356.6218 0000287 248.1999 212.9273 1.00265993 5182 SES-11 (ECHOSTAR 105) 1 42967U 17063A 25308.65774485 -.00000077 00000+0 00000+0 0 9992 2 42967 0.0177 320.0123 0003077 269.7819 306.2212 1.00271225 29473 SES-14 1 43175U 18012B 25308.45509987 -.00000266 00000+0 00000+0 0 9990 2 43175 0.0298 20.3499 0001106 201.0862 298.8806 1.00269978 4776 O3B FM15 1 43231U 18024A 25305.61736008 -.00000011 00000+0 00000+0 0 9995 2 43231 0.0469 356.7772 0002900 220.3412 142.8691 5.00115409139634 O3B FM16 1 43232U 18024B 25308.26836962 -.00000011 00000+0 00000+0 0 9990 2 43232 0.0443 352.6967 0002953 228.0054 139.2838 5.00115638139696 O3B FM14 1 43233U 18024C 25308.50894736 -.00000011 00000+0 00000+0 0 9991 2 43233 0.0449 350.8440 0002807 234.4023 134.7388 5.00115372139712 O3B FM13 1 43234U 18024D 25303.77744220 -.00000013 00000+0 00000+0 0 9990 2 43234 0.0473 15.1775 0009420 149.8351 195.0225 5.00114576139583 SES-12 1 43488U 18049A 25308.77769667 -.00000257 00000+0 00000+0 0 9995 2 43488 0.0486 67.0233 0002711 190.4980 161.7423 1.00269668 27168 O3B FM20 1 44112U 19020A 25308.53495377 -.00000011 00000+0 00000+0 0 9996 2 44112 0.0488 0.1277 0003241 216.8488 143.0091 5.00115346120330 O3B FM19 1 44113U 19020B 25302.16569386 -.00000015 00000+0 00000+0 0 9996 2 44113 0.0476 20.1094 0004080 243.2211 96.6302 5.00114635119872 O3B FM17 1 44114U 19020C 25308.24232847 -.00000011 00000+0 00000+0 0 9997 2 44114 0.0588 341.8016 0002910 237.1986 140.9869 5.00115279120277 O3B FM18 1 44115U 19020D 25308.58835915 -.00000011 00000+0 00000+0 0 9990 2 44115 0.0486 0.5702 0002808 222.4712 136.9445 5.00115064120419 SES-17 1 49332U 21095A 25308.49220977 -.00000260 00000+0 00000+0 0 9993 2 49332 0.0243 0.5627 0001190 223.9928 289.5563 1.00269006 15602 SES-22 1 52933U 22071A 25308.65098480 .00000117 00000+0 00000+0 0 9999 2 52933 0.0111 315.2919 0001373 284.3821 259.8354 1.00270892 5278 SES-20 1 53960U 22123A 25308.39484936 .00000000 00000+0 00000+0 0 9995 2 53960 0.0137 84.1955 0000984 31.9821 326.7462 1.00268755 11278 SES-21 1 53961U 22123B 25308.58120053 .00000082 00000+0 00000+0 0 9994 2 53961 0.0368 65.3013 0000905 153.0282 264.0080 1.00270568 4964 O3B MPOWER F1 1 54755U 22174A 25308.41053181 -.00000011 00000+0 00000+0 0 9994 2 54755 0.0622 6.5780 0004077 224.9019 30.1977 5.00115838 54118 O3B MPOWER F2 1 54756U 22174B 25308.46359871 -.00000011 00000+0 00000+0 0 9995 2 54756 0.0639 4.3798 0005693 224.8713 130.7074 5.00116646 54198 SES-18 1 55970U 23038A 25308.58674725 -.00000089 00000+0 00000+0 0 9990 2 55970 0.0193 273.1166 0002977 334.9953 264.1227 1.00270762 9859 SES-19 1 55971U 23038B 25308.65176481 .00000100 00000+0 00000+0 0 9998 2 55971 0.0199 293.9325 0001854 289.9350 280.0387 1.00269687 9821 O3B MPOWER F4 1 56367U 23059A 25307.89847296 -.00000011 00000+0 00000+0 0 9997 2 56367 0.0467 14.5069 0005234 225.1308 120.3185 5.00114441 47333 O3B MPOWER F3 1 56368U 23059B 25292.90736642 -.00000025 00000+0 00000+0 0 9990 2 56368 0.0454 14.2607 0005936 195.1763 150.5346 5.00129215 42711 O3B MPOWER F5 1 58346U 23175A 25308.03169529 -.00000011 00000+0 00000+0 0 9998 2 58346 0.0437 346.4279 0004593 225.3583 148.1940 5.00115087 38179 O3B MPOWER F6 1 58347U 23175B 25308.53145655 -.00000011 00000+0 00000+0 0 9998 2 58347 0.0447 356.7003 0006724 212.9243 150.3452 5.00114821 37114 ASTRA 1P (SES-24) 1 60086U 24115A 25308.61094459 .00000132 00000+0 00000+0 0 9993 2 60086 0.0642 336.6351 0004894 282.7152 23.9210 1.00269900 4944 O3B MPOWER F7 1 62362U 24244A 25308.59831313 -.00000011 00000+0 00000+0 0 9997 2 62362 0.0529 21.2181 0006075 205.2014 133.5381 5.00115342 15296 O3B MPOWER F8 1 62363U 24244B 25308.16569357 -.00000011 00000+0 00000+0 0 9997 2 62363 0.0813 341.6607 0006959 243.2403 135.0506 5.00116205 9614 O3B MPOWER F9 1 64866U 25153A 25281.47605596 -.00000005 00000+0 00000+0 0 9990 2 64866 3.2383 359.8473 0761196 355.0351 4.2328 5.89130413 5392